[[{"header":{"parameterUnit":"m.s-1","parameterCategory":1,"la1":30.2991,"la2":30.254,"lo1":-89.0895,"lo2":-89.0444,"dy":0.0017,"dx":0.0017,"nx":28,"ny":28,"refTime":"2024-06-18T21:00:00:Z","depth":0,"parameterNumber":2,"parameterNumberName":"U-component_of_WINDS"},"data":[0,0,0,0,0,0,0,0,0,0,0,0,0,0,0,0,0,0,0,0,0,0,0,0,0,0,0,0,0,0,0,0,0,0,0,0,0,0,0,0,0,0,0,0,0,0,0,0,0,0,0,0,0,0,0,0,0,0,-9.2988,-9.2988,0,-9.2972,-9.2971,-9.2971,-9.2714,-9.2708,-9.2701,-9.2695,-9.268,-9.2685,-9.2691,0,0,0,0,0,0,0,0,0,0,0,0,0,-9.2798,-9.2803,-9.2988,-9.2988,-9.2988,-9.2972,-9.2971,-9.2971,-9.2715,-9.2708,-9.27,-9.2692,-9.2678,-9.2685,-9.2691,0,0,0,0,0,0,0,0,0,0,0,0,0,-9.2842,-9.2805,-9.2988,-9.2858,-9.2846,-9.2972,-9.2971,-9.2971,-9.2717,-9.2707,-9.2697,-9.2688,-9.2676,-9.2684,-9.2692,-9.2942,0,0,-9.2719,-9.2722,0,0,0,0,0,0,0,0,-9.2839,-9.2849,-9.2877,-9.2867,-9.2854,-9.2835,-9.2898,-9.2961,-9.272,-9.2766,-9.2695,-9.2684,-9.274,-9.2742,-9.2761,-9.2941,-9.294,-9.2719,-9.2724,-9.2728,-9.2731,0,0,0,0,0,0,0,-9.2837,-9.2848,-9.2981,-9.2878,-9.2864,-9.2801,-9.2796,-9.2909,-9.2808,-9.2761,-9.2743,-9.2744,-9.2731,-9.2753,-9.2758,-9.294,-9.2719,-9.2727,-9.2732,-9.2735,-9.332,-9.333,0,0,0,0,0,0,-9.2852,-9.2847,-9.2982,-9.2981,-9.2822,-9.2812,-9.2807,-9.2851,-9.2806,-9.279,-9.2753,-9.2732,-9.2743,-9.2749,-9.2757,-9.3042,-9.2728,-9.2736,-9.2741,-9.331,-9.3323,-9.3334,0,0,0,0,0,0,-9.2849,-9.2866,-9.2983,-9.2909,-9.2919,-9.2826,-9.2878,-9.2856,-9.2877,-9.2799,-9.278,-9.2793,-9.2736,-9.2745,-9.2897,-9.3038,-9.274,-9.2748,-9.3298,-9.3314,-9.3328,-9.3617,0,0,0,0,0,0,-9.2844,-9.2867,-9.296,-9.2913,-9.2924,-9.3123,-9.2886,-9.2863,-9.2892,-9.2866,-9.2833,-9.2818,-9.2729,-9.2885,-9.2905,-9.3044,-9.2754,-9.3285,-9.3305,-9.3323,-9.3594,-9.364,-9.368,0,0,0,0,0,-9.2838,-9.3043,-9.2966,-9.2984,-9.3039,-9.3132,-9.3138,-9.3031,-9.2905,-9.2998,-9.2948,-9.2819,-9.3021,-9.2903,-9.2923,-9.3067,-9.3275,-9.3299,-9.3322,-9.3575,-9.3631,-9.3679,0,0,0,0,0,0,-9.3109,-9.3034,-9.2948,-9.3144,-9.3146,-9.3088,-9.3202,-9.3095,-9.3133,-9.3106,-9.2973,-9.2968,-9.314,-9.3119,-9.2989,-9.3304,-9.3125,-9.3154,-9.3311,-9.3363,-9.3406,-9.3405,-9.2761,0,0,0,0,0,-9.3192,-9.3274,-9.3204,-9.3383,-9.3389,-9.3297,-9.3333,-9.325,-9.3247,-9.3247,-9.3208,-9.3211,-9.3273,-9.3318,-9.3373,-9.3592,-9.3579,-9.3701,-9.3744,-9.3779,-9.3804,-9.3915,-9.3967,-9.3411,-9.3411,-9.341,0,0,-9.3363,-9.3332,-9.3392,-9.3437,-9.3428,-9.3515,-9.3299,-9.34,-9.3463,-9.3262,-9.3401,-9.3375,-9.3368,-9.3554,-9.3634,-9.3542,-9.3956,-9.3809,-9.3838,-9.3843,-9.3945,-9.3997,-9.4044,-9.3427,-9.3424,-9.3422,0,0,-9.3718,-9.3705,-9.385,-9.3847,-9.3837,-9.3774,-9.381,-9.3769,-9.3742,-9.3881,-9.3731,-9.3805,-9.3918,-9.3918,-9.3934,-9.4291,-9.4172,-9.4313,-9.4535,-9.4645,-9.4688,-9.4726,-9.485,-9.4896,-9.4339,-9.434,-9.434,0,-9.3931,-9.4055,-9.3939,-9.4049,-9.4073,-9.3896,-9.4042,-9.4045,-9.4055,-9.4074,-9.3972,-9.4108,-9.4093,-9.4274,-9.4361,-9.4381,-9.4416,-9.4313,-9.4692,-9.4729,-9.4762,-9.4878,-9.4926,-9.4356,-9.4354,-9.4353,-9.4351,0,-9.4316,-9.4405,-9.4524,-9.4536,-9.4573,-9.4702,-9.4605,-9.4657,-9.4573,-9.4521,-9.4663,-9.4638,-9.4683,-9.4721,-9.464,-9.4892,-9.4834,-9.4715,-9.4531,-9.4834,-9.494,-9.4984,-9.438,-9.4374,-9.4369,-9.4365,0,0,-9.4837,-9.4784,-9.4829,-9.4831,-9.4809,-9.4875,-9.4996,-9.5039,-9.5084,-9.5099,-9.5194,-9.5294,-9.5183,-9.5201,-9.5119,-9.5216,-9.5496,-9.5083,-9.5081,-9.5157,-9.5767,-9.5854,-9.5907,-9.542,-9.5428,-9.5434,-9.5766,0,-9.5176,-9.5376,-9.5275,-9.5488,-9.5567,-9.5402,-9.5506,-9.5504,-9.546,-9.5521,-9.5472,-9.5543,-9.5393,-9.5402,-9.5492,-9.5443,-9.5616,-9.5418,-9.5505,-9.5509,-9.5506,-9.5963,-9.6055,-9.637,-9.5808,-9.5815,-9.582,0,-9.5596,-9.5625,-9.5846,-9.5807,-9.5836,-9.5932,-9.5962,-9.6024,-9.6018,-9.5979,-9.6,-9.5895,-9.601,-9.5832,-9.5988,-9.5856,-9.5886,-9.5868,-9.5878,-9.5877,-9.5679,-9.5971,-9.6468,-9.6514,-9.5885,-9.588,-9.5875,0,-9.5948,-9.6044,-9.6187,-9.6195,-9.6154,-9.6225,-9.6211,-9.6196,-9.6228,-9.6256,-9.6274,-9.6317,-9.6339,-9.6374,-9.6283,-9.6163,-9.645,-9.6266,-9.6419,-9.6421,-9.6482,-9.6479,-9.6986,-9.6512,-9.6511,-9.651,-9.6509,0,-9.6333,-9.6473,-9.6344,-9.6432,-9.6584,-9.6468,-9.6622,-9.6591,-9.6579,-9.6657,-9.652,-9.6596,-9.6474,-9.6539,-9.647,-9.6607,-9.662,-9.659,-9.6569,-9.6599,-9.6602,-9.6613,-9.6587,-9.6523,-9.652,-9.6517,-9.6515,0,-9.6749,-9.6669,-9.6813,-9.6763,-9.6754,-9.6868,-9.6825,-9.6904,-9.6851,-9.6952,-9.697,-9.6887,-9.6956,-9.6871,-9.6933,-9.6886,-9.7072,-9.7021,-9.7073,-9.7056,-9.7213,-9.7197,-9.7741,-9.7804,-9.7295,-9.73,-9.7304,0,-9.6997,-9.7101,-9.7062,-9.7104,-9.7098,-9.7169,-9.72,-9.7092,-9.713,-9.7131,-9.721,-9.7268,-9.7307,-9.7426,-9.7371,-9.7418,-9.7364,-9.7552,-9.737,-9.7397,-9.7361,-9.7354,-9.7362,-9.7587,-9.7593,-9.7598,-9.7602,0,-9.7445,-9.74,-9.745,-9.7487,-9.7528,-9.7553,-9.7567,-9.761,-9.7496,-9.7547,-9.7615,-9.7646,-9.7709,-9.7767,-9.7799,-9.7785,-9.7675,-9.7661,-9.7697,-9.7727,-9.7751,-9.7735,-9.7169,-9.7647,-9.7643,-9.7639,-9.7637,-9.7635,-9.7781,-9.7864,-9.7849,-9.7909,-9.7908,-9.7925,-9.7995,-9.7952,-9.8006,-9.8047,-9.7981,-9.8067,-9.8058,-9.8089,-9.8088,-9.8154,-9.8073,-9.8128,-9.814,-9.8154,-9.8176,-9.7746,-9.816,-9.8158,-9.8157,-9.8156,-9.8155,0,-9.8216,-9.8199,-9.8256,-9.8278,-9.8326,-9.822,-9.823,-9.8277,-9.8353,-9.8354,-9.8396,-9.8474,-9.853,-9.8482,-9.8528,-9.8589,-9.854,-9.8605,-9.8596,-9.8594,-9.8248,-9.8209,-9.8644,-9.8644,-9.8643,-9.8643,-9.8643,-9.8643,-9.8448,-9.8582,-9.8536,-9.8669,-9.865,-9.8731,-9.8746,-9.876,-9.8759,-9.8853,-9.8898,-9.8866,-9.8847,-9.889,-9.8937,-9.8921,-9.8942,-9.9025,-9.8991,-9.8667,-9.8619,-9.8573,-9.8535,-9.9031,-9.9032,-9.933,-9.9333,-9.9335]},{"header":{"parameterUnit":"m.s-1","parameterCategory":1,"la1":30.2991,"la2":30.254,"lo1":-89.0895,"lo2":-89.0444,"dy":0.0017,"dx":0.0017,"nx":28,"ny":28,"refTime":"2024-06-18T21:00:00:Z","depth":0,"parameterNumber":3,"parameterNumberName":"V-component_of_WINDS"},"data":[0,0,0,0,0,0,0,0,0,0,0,0,0,0,0,0,0,0,0,0,0,0,0,0,0,0,0,0,0,0,0,0,0,0,0,0,0,0,0,0,0,0,0,0,0,0,0,0,0,0,0,0,0,0,0,0,0,0,0.9549,0.9549,0,0.9524,0.9523,0.9523,0.9478,0.9477,0.9476,0.9475,0.9447,0.9447,0.9447,0,0,0,0,0,0,0,0,0,0,0,0,0,0.9559,0.9559,0.9549,0.9549,0.9549,0.9524,0.9523,0.9523,0.9478,0.9477,0.9476,0.9475,0.9447,0.9447,0.9447,0,0,0,0,0,0,0,0,0,0,0,0,0,0.9546,0.956,0.9549,0.9523,0.9521,0.9524,0.9523,0.9523,0.9478,0.9477,0.9476,0.9474,0.9447,0.9447,0.9447,0.9473,0,0,0.9447,0.9447,0,0,0,0,0,0,0,0,0.9547,0.9546,0.9527,0.9525,0.9522,0.9503,0.9516,0.9506,0.9478,0.9494,0.9475,0.9474,0.9467,0.9465,0.9463,0.9472,0.947,0.9447,0.9447,0.9447,0.9447,0,0,0,0,0,0,0,0.9548,0.9547,0.9539,0.9527,0.9524,0.9513,0.951,0.9514,0.9488,0.9493,0.9489,0.9487,0.9465,0.9463,0.9462,0.947,0.9447,0.9447,0.9448,0.9448,0.9501,0.9502,0,0,0,0,0,0,0.9553,0.9548,0.954,0.9538,0.9532,0.9514,0.951,0.951,0.9488,0.9483,0.9488,0.9485,0.9463,0.9462,0.9461,0.949,0.9447,0.9448,0.9448,0.9499,0.9501,0.9502,0,0,0,0,0,0,0.9553,0.9553,0.9541,0.9542,0.954,0.9515,0.9515,0.951,0.9508,0.9484,0.9479,0.9491,0.9462,0.9461,0.9471,0.9489,0.9448,0.9448,0.9498,0.95,0.9502,0.9549,0,0,0,0,0,0,0.9554,0.9553,0.9563,0.9543,0.954,0.9552,0.9516,0.9511,0.9509,0.9504,0.9486,0.9481,0.9461,0.9471,0.9471,0.9488,0.9448,0.9496,0.9499,0.9501,0.9546,0.9553,0.9559,0,0,0,0,0,0.9554,0.9576,0.9563,0.9563,0.9551,0.9553,0.9551,0.9528,0.951,0.952,0.9505,0.9482,0.9487,0.9472,0.9472,0.9489,0.9495,0.9498,0.9501,0.9543,0.9551,0.9558,0,0,0,0,0,0,0.9598,0.9573,0.9558,0.9575,0.9566,0.9545,0.9556,0.9537,0.9533,0.9529,0.9501,0.9497,0.9511,0.9501,0.9485,0.9514,0.9487,0.949,0.952,0.9527,0.9534,0.9535,0.9448,0,0,0,0,0,0.9609,0.9613,0.9591,0.9607,0.9604,0.9581,0.9581,0.9564,0.9554,0.955,0.9535,0.9526,0.9526,0.9526,0.9524,0.9545,0.954,0.9557,0.9563,0.9568,0.9571,0.9582,0.959,0.9513,0.9513,0.9512,0,0,0.9633,0.962,0.9624,0.9616,0.9607,0.9612,0.9578,0.9584,0.9587,0.955,0.956,0.9549,0.9537,0.9553,0.9559,0.9545,0.9592,0.9572,0.9576,0.9576,0.9586,0.9594,0.96,0.9515,0.9514,0.9514,0,0,0.9678,0.9668,0.9682,0.9674,0.9663,0.9648,0.9651,0.9633,0.9625,0.9634,0.9608,0.9611,0.961,0.9603,0.96,0.9645,0.9624,0.9645,0.9678,0.9689,0.9695,0.97,0.9717,0.9724,0.9648,0.9648,0.9648,0,0.9708,0.9714,0.9691,0.9699,0.9696,0.9665,0.9679,0.9673,0.9661,0.966,0.9645,0.9645,0.9634,0.9649,0.966,0.9658,0.9662,0.9647,0.9696,0.9701,0.9706,0.9722,0.9728,0.9651,0.9651,0.965,0.965,0,0.9753,0.9757,0.977,0.976,0.9759,0.977,0.9748,0.975,0.9734,0.9721,0.9732,0.9718,0.9714,0.9716,0.97,0.9729,0.9721,0.9702,0.9674,0.9716,0.9731,0.9736,0.9655,0.9654,0.9653,0.9652,0,0,0.9823,0.9802,0.9807,0.9803,0.9789,0.9792,0.9802,0.9798,0.9801,0.9794,0.9802,0.9804,0.9786,0.9782,0.9765,0.9776,0.9814,0.9755,0.9754,0.9767,0.9846,0.9861,0.9868,0.98,0.9801,0.9802,0.9847,0,0.9865,0.9881,0.9861,0.9881,0.9886,0.9857,0.9866,0.9859,0.9847,0.9849,0.9836,0.9838,0.9814,0.9812,0.9821,0.9807,0.9829,0.9804,0.9807,0.9808,0.9811,0.9875,0.989,0.9933,0.9852,0.9853,0.9854,0,0.9916,0.9913,0.9934,0.9921,0.9922,0.993,0.9926,0.9929,0.992,0.9911,0.9908,0.9888,0.9897,0.9872,0.9884,0.9867,0.9868,0.9862,0.9863,0.9862,0.9833,0.9876,0.9946,0.9953,0.9862,0.9862,0.9861,0,0.9966,0.9967,0.998,0.9978,0.9962,0.9969,0.9962,0.9952,0.9952,0.9949,0.9949,0.9947,0.9946,0.9945,0.9925,0.9908,0.9941,0.9913,0.9933,0.9934,0.9941,0.9941,1.0012,0.9942,0.9941,0.9941,0.9941,0,1.0015,1.0029,1.0003,1.0011,1.0026,1.0004,1.002,1.001,1.0002,1.0008,0.9983,0.999,0.9964,0.9967,0.9952,0.9965,0.9965,0.9958,0.9954,0.996,0.9961,0.996,0.9956,0.9943,0.9943,0.9942,0.9942,0,1.0072,1.0056,1.0068,1.0053,1.005,1.0062,1.0048,1.0055,1.0043,1.0051,1.0052,1.0032,1.0035,1.0016,1.0015,1.0006,1.0026,1.0017,1.0029,1.0026,1.0049,1.0047,1.0122,1.0131,1.0054,1.0055,1.0056,0,1.0105,1.0115,1.0102,1.0105,1.01,1.0104,1.0105,1.0083,1.0085,1.0077,1.0085,1.0087,1.0087,1.0093,1.0079,1.0078,1.0069,1.0095,1.0068,1.0075,1.007,1.0069,1.0071,1.0101,1.0101,1.0102,1.0103,0,1.0164,1.0156,1.0158,1.0158,1.0159,1.0157,1.0154,1.0158,1.0135,1.0138,1.0141,1.0141,1.0142,1.0144,1.0141,1.0134,1.0115,1.0112,1.0117,1.0123,1.013,1.0127,1.0045,1.011,1.0109,1.0109,1.0108,1.0108,1.0211,1.0219,1.0212,1.0215,1.0211,1.0209,1.0215,1.0204,1.0207,1.0206,1.0194,1.02,1.0192,1.0187,1.0182,1.0187,1.0175,1.0181,1.0183,1.0185,1.0189,1.013,1.0187,1.0186,1.0186,1.0186,1.0186,0,1.0269,1.0264,1.0267,1.0264,1.0267,1.025,1.0246,1.0249,1.0255,1.025,1.0252,1.0256,1.0259,1.0245,1.0246,1.0252,1.0244,1.0253,1.0253,1.0252,1.02,1.0196,1.026,1.026,1.026,1.026,1.026,1.026,1.03,1.0314,1.0305,1.0318,1.0311,1.0318,1.0318,1.0316,1.0312,1.0319,1.0321,1.0313,1.0305,1.0305,1.0307,1.0303,1.0304,1.0317,1.031,1.0262,1.0255,1.0248,1.0244,1.0317,1.0317,1.0361,1.0361,1.0361]}]]